CES5898 ZGHA-ZPPP

Flight info

Callsign CES5898
Flight time 1h 54m
Altitude 30100
Route OLT6X OLTUS W226 IRSAS H165 P490 A581 XISLI XISLI9E
Aircraft A320/M-SDE3FGHIRWY/LB1

Departure

Time 2026-05-08 13:38
Airport Changsha Huanghua International Airport (ZGHA)

Arrival

Time 2026-05-08 15:33
Airport Kunming Changshui International Airport (ZPPP)
Time Latitude Longitude Altitude Speed Heading
2026-05-08 13:04 28.19205 113.21487 214 ft 0 kts 358°
2026-05-08 13:29 28.19193 113.21488 216 ft 3 kts 357°
2026-05-08 13:29 28.19173 113.21489 214 ft 3 kts 358°
2026-05-08 13:30 28.19153 113.21489 215 ft 3 kts 12°
2026-05-08 13:30 28.19140 113.21484 216 ft 0 kts 28°
2026-05-08 13:32 28.19142 113.21486 217 ft 1 kts 32°
2026-05-08 13:33 28.19150 113.21508 213 ft 5 kts 77°
2026-05-08 13:33 28.19151 113.21559 214 ft 8 kts 88°
2026-05-08 13:33 28.19155 113.21635 214 ft 11 kts 87°
2026-05-08 13:33 28.19159 113.21730 214 ft 11 kts 88°
2026-05-08 13:34 28.19114 113.21777 214 ft 10 kts 174°
2026-05-08 13:34 28.19037 113.21781 214 ft 12 kts 177°
2026-05-08 13:34 28.18947 113.21787 219 ft 14 kts 177°
2026-05-08 13:34 28.18844 113.21794 216 ft 16 kts 176°
2026-05-08 13:35 28.18729 113.21801 219 ft 17 kts 176°
2026-05-08 13:35 28.18603 113.21809 217 ft 19 kts 177°
2026-05-08 13:35 28.18463 113.21817 217 ft 21 kts 176°
2026-05-08 13:35 28.18312 113.21827 214 ft 23 kts 176°
2026-05-08 13:36 28.18150 113.21837 214 ft 24 kts 177°
2026-05-08 13:36 28.17977 113.21848 214 ft 26 kts 176°
2026-05-08 13:36 28.17814 113.21858 214 ft 15 kts 176°
2026-05-08 13:36 28.17755 113.21884 219 ft 9 kts 134°
2026-05-08 13:37 28.17740 113.21954 219 ft 10 kts 88°
2026-05-08 13:37 28.17757 113.22025 222 ft 8 kts 58°
2026-05-08 13:37 28.17799 113.22044 217 ft 5 kts 358°
2026-05-08 13:37 28.17887 113.22040 216 ft 35 kts 357°
2026-05-08 13:38 28.18366 113.22010 219 ft 99 kts 356°
2026-05-08 13:38 28.19226 113.21957 223 ft 145 kts 357°
2026-05-08 13:38 28.20343 113.21892 437 ft 165 kts 358°
2026-05-08 13:38 28.21481 113.21830 1121 ft 163 kts 358°
2026-05-08 13:39 28.22611 113.21768 1761 ft 163 kts 358°
2026-05-08 13:39 28.23751 113.21692 2287 ft 166 kts 359°
2026-05-08 13:39 28.24908 113.21621 2849 ft 167 kts 360°
2026-05-08 13:39 28.26068 113.21547 3423 ft 168 kts 359°
2026-05-08 13:40 28.27309 113.21469 3748 ft 190 kts 359°
2026-05-08 13:40 28.28705 113.21382 4043 ft 212 kts 359°
2026-05-08 13:40 28.30226 113.21291 4538 ft 224 kts 358°
2026-05-08 13:40 28.31774 113.21193 5270 ft 228 kts 358°
2026-05-08 13:41 28.33372 113.21089 5949 ft 232 kts 357°
2026-05-08 13:41 28.35000 113.20984 6628 ft 237 kts 356°
2026-05-08 13:41 28.36616 113.20627 6839 ft 237 kts 333°
2026-05-08 13:41 28.37859 113.19450 6901 ft 234 kts 302°
2026-05-08 13:42 28.38396 113.17742 6900 ft 231 kts 271°
2026-05-08 13:42 28.38331 113.15916 6902 ft 232 kts 266°
2026-05-08 13:42 28.38233 113.14085 6902 ft 233 kts 266°
2026-05-08 13:42 28.38108 113.12253 6904 ft 232 kts 258°
2026-05-08 13:43 28.37437 113.10615 6922 ft 232 kts 227°
2026-05-08 13:43 28.36082 113.09549 7188 ft 251 kts 199°
2026-05-08 13:43 28.34277 113.09344 7516 ft 273 kts 177°
2026-05-08 13:43 28.32343 113.09368 8169 ft 282 kts 184°
2026-05-08 13:44 28.30374 113.09215 8957 ft 285 kts 187°
2026-05-08 13:44 28.28393 113.09000 9707 ft 288 kts 188°
2026-05-08 13:44 28.26369 113.08775 10248 ft 300 kts 188°
2026-05-08 13:44 28.24203 113.08552 10420 ft 324 kts 188°
2026-05-08 13:45 28.21883 113.08335 10610 ft 343 kts 187°
2026-05-08 13:45 28.19481 113.08088 11109 ft 349 kts 193°
2026-05-08 13:45 28.17224 113.07146 11668 ft 346 kts 215°
2026-05-08 13:45 28.15466 113.05337 12266 ft 342 kts 237°
2026-05-08 13:46 28.14451 113.02936 12871 ft 339 kts 258°
2026-05-08 13:46 28.14077 113.00298 13510 ft 339 kts 263°
2026-05-08 13:46 28.13754 112.97657 14131 ft 341 kts 263°
2026-05-08 13:46 28.13541 112.94983 14676 ft 341 kts 271°
2026-05-08 13:47 28.13681 112.92293 15200 ft 343 kts 274°
2026-05-08 13:47 28.13847 112.89589 15716 ft 345 kts 274°
2026-05-08 13:47 28.14009 112.86870 16218 ft 348 kts 274°
2026-05-08 13:47 28.14172 112.84129 16728 ft 350 kts 273°
2026-05-08 13:48 28.14334 112.81371 17256 ft 352 kts 273°
2026-05-08 13:48 28.14494 112.78597 17771 ft 354 kts 273°
2026-05-08 13:48 28.14652 112.75804 18304 ft 356 kts 273°
2026-05-08 13:48 28.14811 112.72998 18774 ft 358 kts 272°
2026-05-08 13:49 28.14971 112.70207 19232 ft 360 kts 273°
2026-05-08 13:49 28.15133 112.67371 19694 ft 361 kts 273°
2026-05-08 13:49 28.15296 112.64525 20170 ft 363 kts 273°
2026-05-08 13:49 28.15460 112.61669 20632 ft 364 kts 273°
2026-05-08 13:50 28.15622 112.58796 21077 ft 366 kts 273°
2026-05-08 13:50 28.15785 112.55914 21506 ft 368 kts 273°
2026-05-08 13:50 28.15948 112.53011 21921 ft 370 kts 273°
2026-05-08 13:50 28.16107 112.50095 22336 ft 372 kts 273°
2026-05-08 13:51 28.16267 112.47164 22737 ft 373 kts 273°
2026-05-08 13:51 28.16429 112.44211 23130 ft 375 kts 273°
2026-05-08 13:51 28.16592 112.41253 23516 ft 377 kts 273°
2026-05-08 13:51 28.16756 112.38281 23873 ft 379 kts 273°
2026-05-08 13:52 28.16919 112.35297 24196 ft 380 kts 273°
2026-05-08 13:52 28.17084 112.32302 24527 ft 381 kts 273°
2026-05-08 13:52 28.17249 112.29302 24869 ft 382 kts 273°
2026-05-08 13:52 28.17410 112.26338 25198 ft 383 kts 273°
2026-05-08 13:53 28.17521 112.23324 25519 ft 383 kts 268°
2026-05-08 13:53 28.17198 112.20324 25851 ft 386 kts 259°
2026-05-08 13:53 28.16458 112.17387 26183 ft 388 kts 256°
2026-05-08 13:53 28.15680 112.14457 26515 ft 389 kts 256°
2026-05-08 13:54 28.14900 112.11515 26840 ft 390 kts 256°
2026-05-08 13:54 28.14120 112.08564 27162 ft 391 kts 256°
2026-05-08 13:54 28.13341 112.05613 27470 ft 392 kts 256°
2026-05-08 13:54 28.12561 112.02651 27779 ft 393 kts 256°
2026-05-08 13:55 28.11783 111.99691 28203 ft 391 kts 256°
2026-05-08 13:55 28.11011 111.96752 28671 ft 388 kts 256°
2026-05-08 13:55 28.09479 111.90937 29652 ft 383 kts 256°
2026-05-08 13:56 28.08715 111.88054 30122 ft 381 kts 256°
2026-05-08 13:56 28.07952 111.85189 30273 ft 380 kts 256°
2026-05-08 13:56 28.07186 111.82313 30304 ft 382 kts 256°
2026-05-08 13:57 28.05660 111.76545 30309 ft 382 kts 256°
2026-05-08 13:57 28.04135 111.70792 30276 ft 381 kts 256°
2026-05-08 13:58 28.02600 111.65044 30307 ft 382 kts 256°
2026-05-08 13:58 28.01073 111.59335 30305 ft 381 kts 256°
2026-05-08 13:59 27.99537 111.53593 30305 ft 381 kts 256°
2026-05-08 13:59 27.98082 111.47832 30306 ft 381 kts 258°
2026-05-08 14:00 27.96733 111.42047 30305 ft 380 kts 258°
2026-05-08 14:00 27.95380 111.36263 30310 ft 380 kts 258°
2026-05-08 14:01 27.94005 111.30487 30311 ft 380 kts 257°
2026-05-08 14:01 27.92834 111.25652 30312 ft 381 kts 257°
2026-05-08 14:02 27.91208 111.18953 30311 ft 380 kts 257°
2026-05-08 14:02 27.90051 111.14167 30310 ft 380 kts 257°
2026-05-08 14:03 27.88650 111.08370 30322 ft 379 kts 257°
2026-05-08 14:03 27.87257 111.02618 30296 ft 379 kts 257°
2026-05-08 14:04 27.85871 110.96914 30298 ft 379 kts 257°
2026-05-08 14:04 27.84470 110.91172 30307 ft 379 kts 257°
2026-05-08 14:05 27.83066 110.85432 30302 ft 379 kts 257°
2026-05-08 14:05 27.81663 110.79687 30310 ft 379 kts 257°
2026-05-08 14:06 27.80258 110.73937 30317 ft 379 kts 257°
2026-05-08 14:06 27.78853 110.68203 30310 ft 378 kts 257°
2026-05-08 14:07 27.77444 110.62479 30324 ft 378 kts 257°
2026-05-08 14:07 27.76036 110.56759 30316 ft 378 kts 257°
2026-05-08 14:08 27.74628 110.51037 30317 ft 378 kts 257°
2026-05-08 14:08 27.73210 110.45310 30314 ft 379 kts 257°
2026-05-08 14:09 27.71793 110.39591 30323 ft 378 kts 257°
2026-05-08 14:09 27.70379 110.33880 30331 ft 377 kts 257°
2026-05-08 14:10 27.68956 110.28176 30296 ft 378 kts 257°
2026-05-08 14:10 27.67531 110.22457 30304 ft 379 kts 257°
2026-05-08 14:11 27.66100 110.16723 30301 ft 380 kts 257°
2026-05-08 14:11 27.64670 110.11019 30299 ft 380 kts 257°
2026-05-08 14:12 27.63223 110.05247 30316 ft 380 kts 257°
2026-05-08 14:12 27.61786 109.99517 30317 ft 380 kts 257°
2026-05-08 14:13 27.60349 109.93789 30322 ft 380 kts 257°
2026-05-08 14:13 27.58917 109.88104 30322 ft 380 kts 257°
2026-05-08 14:14 27.57470 109.82380 30319 ft 380 kts 257°
2026-05-08 14:14 27.56012 109.76663 30322 ft 379 kts 257°
2026-05-08 14:15 27.54554 109.70954 30329 ft 379 kts 257°
2026-05-08 14:15 27.52944 109.65284 30330 ft 380 kts 254°
2026-05-08 14:16 27.51156 109.59672 30300 ft 382 kts 253°
2026-05-08 14:16 27.49347 109.54041 30301 ft 383 kts 254°
2026-05-08 14:17 27.47571 109.48386 30302 ft 383 kts 254°
2026-05-08 14:17 27.45802 109.42723 30309 ft 384 kts 254°
2026-05-08 14:18 27.44052 109.37042 30320 ft 384 kts 254°
2026-05-08 14:18 27.42313 109.31358 30324 ft 384 kts 254°
2026-05-08 14:19 27.40561 109.25677 30330 ft 384 kts 254°
2026-05-08 14:19 27.38801 109.20000 30336 ft 384 kts 254°
2026-05-08 14:20 27.37042 109.14319 30335 ft 384 kts 254°
2026-05-08 14:20 27.35281 109.08642 30344 ft 384 kts 254°
2026-05-08 14:21 27.33517 109.02982 30348 ft 383 kts 254°
2026-05-08 14:21 27.31766 108.97356 30327 ft 384 kts 254°
2026-05-08 14:22 27.30002 108.91691 30328 ft 384 kts 254°
2026-05-08 14:22 27.28228 108.86013 30329 ft 385 kts 254°
2026-05-08 14:23 27.26448 108.80328 30334 ft 385 kts 254°
2026-05-08 14:23 27.24664 108.74650 30343 ft 385 kts 254°
2026-05-08 14:24 27.22880 108.68975 30344 ft 385 kts 254°
2026-05-08 14:24 27.21095 108.63300 30345 ft 385 kts 253°
2026-05-08 14:25 27.19308 108.57629 30351 ft 385 kts 253°
2026-05-08 14:25 27.17517 108.51963 30357 ft 385 kts 253°
2026-05-08 14:26 27.15725 108.46304 30355 ft 385 kts 253°
2026-05-08 14:26 27.13948 108.40681 30365 ft 384 kts 253°
2026-05-08 14:27 27.12151 108.35003 30366 ft 383 kts 253°
2026-05-08 14:27 27.10377 108.29415 30366 ft 382 kts 253°
2026-05-08 14:28 27.08587 108.23792 30364 ft 382 kts 253°
2026-05-08 14:28 27.06800 108.18185 30363 ft 382 kts 253°
2026-05-08 14:29 27.05015 108.12579 30362 ft 381 kts 253°
2026-05-08 14:29 27.03222 108.06975 30361 ft 381 kts 253°
2026-05-08 14:30 27.01424 108.01384 30366 ft 381 kts 253°
2026-05-08 14:30 26.99630 107.95801 30366 ft 381 kts 253°
2026-05-08 14:31 26.97840 107.90215 30363 ft 381 kts 253°
2026-05-08 14:31 26.96045 107.84635 30359 ft 381 kts 253°
2026-05-08 14:32 26.93347 107.76265 30351 ft 381 kts 253°
2026-05-08 14:32 26.91544 107.70676 30336 ft 382 kts 253°
2026-05-08 14:33 26.89730 107.65073 30338 ft 383 kts 253°
2026-05-08 14:33 26.87905 107.59455 30340 ft 384 kts 253°
2026-05-08 14:34 26.86075 107.53829 30341 ft 385 kts 253°
2026-05-08 14:34 26.84245 107.48194 30344 ft 385 kts 253°
2026-05-08 14:35 26.82410 107.42556 30347 ft 385 kts 253°
2026-05-08 14:35 26.80573 107.36919 30364 ft 385 kts 253°
2026-05-08 14:36 26.78741 107.31287 30360 ft 385 kts 253°
2026-05-08 14:36 26.76921 107.25697 30361 ft 385 kts 253°
2026-05-08 14:37 26.75080 107.20069 30362 ft 385 kts 253°
2026-05-08 14:37 26.73240 107.14449 30361 ft 385 kts 253°
2026-05-08 14:38 26.71401 107.08830 30320 ft 385 kts 253°
2026-05-08 14:38 26.69550 107.03204 30334 ft 386 kts 253°
2026-05-08 14:39 26.67694 106.97560 30337 ft 387 kts 253°
2026-05-08 14:39 26.65825 106.91908 30340 ft 388 kts 252°
2026-05-08 14:40 26.63975 106.86251 30357 ft 387 kts 253°
2026-05-08 14:40 26.62244 106.80587 30360 ft 387 kts 254°
2026-05-08 14:41 26.60524 106.74887 30361 ft 387 kts 254°
2026-05-08 14:41 26.58780 106.69189 30352 ft 388 kts 254°
2026-05-08 14:42 26.57120 106.63459 30352 ft 387 kts 255°
2026-05-08 14:42 26.55538 106.57707 30347 ft 387 kts 255°
2026-05-08 14:43 26.53945 106.51959 30342 ft 387 kts 255°
2026-05-08 14:43 26.52324 106.46218 30333 ft 388 kts 255°
2026-05-08 14:44 26.50694 106.40483 30303 ft 388 kts 255°
2026-05-08 14:44 26.49060 106.34742 30306 ft 389 kts 255°
2026-05-08 14:45 26.47850 106.28892 30308 ft 387 kts 266°
2026-05-08 14:45 26.47866 106.22870 30316 ft 388 kts 270°
2026-05-08 14:46 26.47896 106.17864 30310 ft 388 kts 270°
2026-05-08 14:46 26.47932 106.11836 30315 ft 388 kts 270°
2026-05-08 14:47 26.47976 106.04784 30312 ft 389 kts 270°
2026-05-08 14:47 26.48006 105.99772 30318 ft 389 kts 270°
2026-05-08 14:48 26.48037 105.93732 30305 ft 389 kts 269°
2026-05-08 14:48 26.48063 105.87694 30307 ft 390 kts 269°
2026-05-08 14:49 26.48088 105.81631 30307 ft 390 kts 269°
2026-05-08 14:49 26.48113 105.75572 30309 ft 391 kts 269°
2026-05-08 14:50 26.48136 105.69509 30309 ft 391 kts 269°
2026-05-08 14:50 26.48155 105.63450 30303 ft 391 kts 269°
2026-05-08 14:51 26.48175 105.57379 30297 ft 392 kts 269°
2026-05-08 14:51 26.48192 105.51289 30303 ft 393 kts 269°
2026-05-08 14:52 26.48206 105.42139 30296 ft 393 kts 269°
2026-05-08 14:53 26.48204 105.36036 30299 ft 394 kts 269°
2026-05-08 14:53 26.48207 105.29925 30298 ft 394 kts 269°
2026-05-08 14:54 26.48213 105.23804 30286 ft 395 kts 269°
2026-05-08 14:54 26.48218 105.17661 30288 ft 396 kts 269°
2026-05-08 14:55 26.48213 105.11498 30286 ft 397 kts 269°
2026-05-08 14:55 26.48203 105.05320 30292 ft 398 kts 269°
2026-05-08 14:56 26.48195 104.99173 30296 ft 399 kts 269°
2026-05-08 14:56 26.48187 104.92987 30308 ft 399 kts 269°
2026-05-08 14:57 26.48173 104.86800 30324 ft 398 kts 269°
2026-05-08 14:57 26.48157 104.80618 30332 ft 398 kts 269°
2026-05-08 14:58 26.47357 104.74558 30334 ft 397 kts 251°
2026-05-08 14:58 26.44652 104.69161 30324 ft 400 kts 239°
2026-05-08 14:59 26.41583 104.63969 30335 ft 401 kts 239°
2026-05-08 14:59 26.36982 104.56170 30316 ft 402 kts 239°
2026-05-08 15:00 26.33904 104.50973 30315 ft 402 kts 239°
2026-05-08 15:00 26.30816 104.45777 30330 ft 402 kts 239°
2026-05-08 15:01 26.27731 104.40577 30332 ft 402 kts 239°
2026-05-08 15:01 26.24643 104.35371 30351 ft 403 kts 239°
2026-05-08 15:02 26.21546 104.30169 30357 ft 403 kts 239°
2026-05-08 15:02 26.18444 104.24968 30278 ft 404 kts 240°
2026-05-08 15:03 26.16891 104.22367 30006 ft 404 kts 239°
2026-05-08 15:03 26.15335 104.19764 29748 ft 403 kts 239°
2026-05-08 15:03 26.13794 104.17187 29488 ft 398 kts 239°
2026-05-08 15:03 26.12266 104.14633 29223 ft 395 kts 239°
2026-05-08 15:04 26.10747 104.12092 28966 ft 393 kts 239°
2026-05-08 15:04 26.09237 104.09566 28714 ft 392 kts 239°
2026-05-08 15:04 26.07731 104.07048 28462 ft 390 kts 239°
2026-05-08 15:04 26.06231 104.04540 28211 ft 389 kts 239°
2026-05-08 15:05 26.04738 104.02043 27973 ft 387 kts 239°
2026-05-08 15:05 26.03248 103.99554 27847 ft 386 kts 239°
2026-05-08 15:05 26.01760 103.97071 27884 ft 386 kts 239°
2026-05-08 15:05 26.00269 103.94582 27874 ft 386 kts 239°
2026-05-08 15:06 25.98778 103.92097 27877 ft 387 kts 239°
2026-05-08 15:06 25.97284 103.89610 27879 ft 387 kts 239°
2026-05-08 15:06 25.95780 103.87134 27873 ft 387 kts 239°
2026-05-08 15:06 25.94263 103.84667 27883 ft 386 kts 239°
2026-05-08 15:07 25.92744 103.82215 27886 ft 385 kts 238°
2026-05-08 15:07 25.91220 103.79766 27883 ft 385 kts 238°
2026-05-08 15:07 25.89720 103.77351 27869 ft 385 kts 238°
2026-05-08 15:07 25.88225 103.74877 27890 ft 385 kts 242°
2026-05-08 15:08 25.86998 103.72242 27889 ft 384 kts 248°
2026-05-08 15:08 25.86279 103.70408 27890 ft 384 kts 248°
2026-05-08 15:08 25.84860 103.66809 27888 ft 384 kts 248°
2026-05-08 15:08 25.83787 103.64097 27887 ft 384 kts 248°
2026-05-08 15:09 25.82714 103.61381 27899 ft 384 kts 248°
2026-05-08 15:09 25.81644 103.58673 27896 ft 384 kts 248°
2026-05-08 15:09 25.80566 103.55957 27896 ft 383 kts 248°
2026-05-08 15:09 25.79489 103.53252 27896 ft 384 kts 248°
2026-05-08 15:10 25.78408 103.50541 27893 ft 384 kts 248°
2026-05-08 15:10 25.77328 103.47834 27904 ft 383 kts 248°
2026-05-08 15:10 25.76253 103.45135 27906 ft 382 kts 248°
2026-05-08 15:10 25.75182 103.42441 27898 ft 381 kts 248°
2026-05-08 15:11 25.74110 103.39749 27906 ft 382 kts 248°
2026-05-08 15:11 25.73035 103.37057 27890 ft 382 kts 248°
2026-05-08 15:11 25.71960 103.34368 27607 ft 381 kts 248°
2026-05-08 15:11 25.70890 103.31687 27320 ft 379 kts 247°
2026-05-08 15:12 25.69637 103.29119 27033 ft 379 kts 240°
2026-05-08 15:12 25.68069 103.26764 26752 ft 381 kts 232°
2026-05-08 15:12 25.66213 103.24664 26464 ft 383 kts 225°
2026-05-08 15:12 25.64136 103.22806 26171 ft 384 kts 223°
2026-05-08 15:13 25.62033 103.20974 25888 ft 385 kts 223°
2026-05-08 15:13 25.59935 103.19142 25619 ft 384 kts 223°
2026-05-08 15:13 25.57838 103.17307 25347 ft 383 kts 223°
2026-05-08 15:13 25.55784 103.15507 25081 ft 381 kts 223°
2026-05-08 15:14 25.53708 103.13685 24823 ft 380 kts 223°
2026-05-08 15:14 25.51634 103.11864 24559 ft 380 kts 223°
2026-05-08 15:14 25.49565 103.10049 24297 ft 379 kts 223°
2026-05-08 15:14 25.47497 103.08241 24033 ft 379 kts 222°
2026-05-08 15:15 25.45431 103.06439 23755 ft 378 kts 222°
2026-05-08 15:15 25.43364 103.04639 23443 ft 377 kts 222°
2026-05-08 15:15 25.41309 103.02845 23137 ft 375 kts 222°
2026-05-08 15:15 25.39268 103.01062 22834 ft 373 kts 222°
2026-05-08 15:16 25.37239 102.99290 22532 ft 371 kts 222°
2026-05-08 15:16 25.35218 102.97527 22221 ft 369 kts 222°
2026-05-08 15:16 25.33207 102.95774 21921 ft 367 kts 222°
2026-05-08 15:16 25.31201 102.94027 21660 ft 365 kts 222°
2026-05-08 15:17 25.29208 102.92292 21374 ft 364 kts 222°
2026-05-08 15:17 25.27220 102.90560 21085 ft 363 kts 222°
2026-05-08 15:17 25.25240 102.88836 20807 ft 362 kts 222°
2026-05-08 15:17 25.23264 102.87118 20526 ft 361 kts 222°
2026-05-08 15:18 25.21297 102.85410 20247 ft 359 kts 222°
2026-05-08 15:18 25.19332 102.83704 20001 ft 359 kts 221°
2026-05-08 15:18 25.17377 102.82008 19754 ft 357 kts 221°
2026-05-08 15:18 25.15424 102.80312 19545 ft 356 kts 221°
2026-05-08 15:19 25.13479 102.78623 19340 ft 356 kts 221°
2026-05-08 15:19 25.11536 102.76938 19132 ft 355 kts 221°
2026-05-08 15:19 25.09598 102.75255 18928 ft 355 kts 221°
2026-05-08 15:19 25.07657 102.73571 18712 ft 355 kts 221°
2026-05-08 15:20 25.05716 102.71886 18492 ft 355 kts 221°
2026-05-08 15:20 25.03778 102.70205 18247 ft 354 kts 221°
2026-05-08 15:20 25.01841 102.68527 18013 ft 353 kts 221°
2026-05-08 15:20 24.99909 102.66857 17785 ft 352 kts 221°
2026-05-08 15:21 24.97983 102.65192 17552 ft 351 kts 221°
2026-05-08 15:21 24.96064 102.63535 17313 ft 350 kts 221°
2026-05-08 15:21 24.94149 102.61882 17076 ft 349 kts 221°
2026-05-08 15:21 24.92238 102.60234 16842 ft 348 kts 221°
2026-05-08 15:22 24.90366 102.58620 16608 ft 332 kts 221°
2026-05-08 15:22 24.88602 102.57103 16394 ft 312 kts 221°
2026-05-08 15:22 24.86938 102.55673 16176 ft 295 kts 221°
2026-05-08 15:22 24.85362 102.54316 15955 ft 280 kts 221°
2026-05-08 15:23 24.83884 102.53042 15739 ft 267 kts 221°
2026-05-08 15:23 24.82420 102.51781 15537 ft 261 kts 221°
2026-05-08 15:23 24.80926 102.50670 15327 ft 261 kts 205°
2026-05-08 15:23 24.79149 102.50431 15117 ft 268 kts 173°
2026-05-08 15:24 24.77452 102.51373 14908 ft 279 kts 139°
2026-05-08 15:24 24.76194 102.52984 14708 ft 282 kts 133°
2026-05-08 15:24 24.74973 102.54679 14503 ft 283 kts 131°
2026-05-08 15:24 24.73928 102.56506 14290 ft 285 kts 110°
2026-05-08 15:25 24.73747 102.58659 14093 ft 286 kts 78°
2026-05-08 15:25 24.74541 102.60624 13865 ft 282 kts 47°
2026-05-08 15:25 24.76024 102.61987 13642 ft 278 kts 32°
2026-05-08 15:25 24.77579 102.63257 13424 ft 279 kts 35°
2026-05-08 15:26 24.79095 102.64575 13202 ft 277 kts 36°
2026-05-08 15:26 24.80585 102.65899 12981 ft 274 kts 37°
2026-05-08 15:26 24.82047 102.67223 12751 ft 271 kts 38°
2026-05-08 15:26 24.83496 102.68527 12531 ft 267 kts 37°
2026-05-08 15:27 24.84935 102.69775 12314 ft 259 kts 36°
2026-05-08 15:27 24.86342 102.70988 12103 ft 255 kts 36°
2026-05-08 15:27 24.87726 102.72184 11915 ft 251 kts 37°
2026-05-08 15:27 24.89088 102.73363 11751 ft 247 kts 37°
2026-05-08 15:28 24.90426 102.74521 11600 ft 241 kts 37°
2026-05-08 15:28 24.91731 102.75652 11446 ft 238 kts 37°
2026-05-08 15:28 24.93036 102.76782 11175 ft 239 kts 37°
2026-05-08 15:28 24.94349 102.77919 10894 ft 241 kts 38°
2026-05-08 15:29 24.95672 102.79066 10602 ft 244 kts 38°
2026-05-08 15:29 24.97009 102.80225 10310 ft 245 kts 38°
2026-05-08 15:29 24.98333 102.81373 9991 ft 240 kts 39°
2026-05-08 15:29 24.99638 102.82505 9691 ft 239 kts 39°
2026-05-08 15:30 25.00947 102.83641 9395 ft 239 kts 38°
2026-05-08 15:30 25.02241 102.84764 9065 ft 233 kts 39°
2026-05-08 15:30 25.03479 102.85838 8765 ft 220 kts 39°
2026-05-08 15:30 25.04637 102.86843 8515 ft 203 kts 39°
2026-05-08 15:31 25.05688 102.87756 8243 ft 184 kts 40°
2026-05-08 15:31 25.06340 102.88322 8101 ft 176 kts 40°
2026-05-08 15:31 25.07278 102.89138 7864 ft 168 kts 39°
2026-05-08 15:31 25.08487 102.90188 7499 ft 161 kts 37°
2026-05-08 15:32 25.09066 102.90689 7346 ft 159 kts 36°
2026-05-08 15:32 25.09923 102.91433 7111 ft 156 kts 36°
2026-05-08 15:32 25.11030 102.92394 6911 ft 140 kts 37°
2026-05-08 15:32 25.11493 102.92798 6904 ft 109 kts 38°
2026-05-08 15:33 25.12049 102.93282 6899 ft 46 kts 38°
2026-05-08 15:33 25.12174 102.93394 6900 ft 29 kts 44°
2026-05-08 15:33 25.12276 102.93557 6900 ft 12 kts 65°
2026-05-08 15:33 25.12306 102.93630 6900 ft 8 kts 66°
2026-05-08 15:34 25.12322 102.93689 6900 ft 9 kts 91°
2026-05-08 15:34 25.12284 102.93729 6899 ft 6 kts 178°
2026-05-08 15:34 25.12247 102.93703 6900 ft 7 kts 220°
2026-05-08 15:34 25.12210 102.93666 6899 ft 8 kts 220°
2026-05-08 15:35 25.12166 102.93627 6899 ft 9 kts 218°
2026-05-08 15:35 25.12116 102.93584 6900 ft 10 kts 218°
2026-05-08 15:35 25.12062 102.93537 6900 ft 10 kts 218°
2026-05-08 15:35 25.12003 102.93485 6900 ft 11 kts 218°
2026-05-08 15:36 25.11938 102.93429 6900 ft 12 kts 218°
2026-05-08 15:36 25.11867 102.93368 6901 ft 13 kts 218°
2026-05-08 15:36 25.11793 102.93303 6901 ft 14 kts 218°
2026-05-08 15:36 25.11714 102.93234 6901 ft 15 kts 218°
2026-05-08 15:37 25.11632 102.93163 6902 ft 16 kts 218°
2026-05-08 15:37 25.11544 102.93087 6903 ft 16 kts 218°
2026-05-08 15:37 25.11455 102.93010 6917 ft 17 kts 218°
2026-05-08 15:37 25.11360 102.92928 6904 ft 18 kts 218°
2026-05-08 15:38 25.11278 102.92856 6911 ft 11 kts 218°
2026-05-08 15:38 25.11218 102.92834 6912 ft 9 kts 155°
2026-05-08 15:38 25.11173 102.92890 6910 ft 11 kts 128°
2026-05-08 15:38 25.11124 102.92958 6904 ft 12 kts 128°
2026-05-08 15:39 25.11068 102.93035 6903 ft 14 kts 128°
2026-05-08 15:39 25.11006 102.93121 6902 ft 15 kts 128°
2026-05-08 15:39 25.10938 102.93216 6901 ft 17 kts 128°
2026-05-08 15:39 25.10862 102.93321 6900 ft 18 kts 128°
2026-05-08 15:40 25.10778 102.93437 6898 ft 20 kts 129°
2026-05-08 15:40 25.10705 102.93538 6897 ft 15 kts 128°
2026-05-08 15:40 25.10635 102.93635 6896 ft 17 kts 129°
2026-05-08 15:40 25.10559 102.93740 6894 ft 14 kts 129°
2026-05-08 15:41 25.10521 102.93791 6894 ft 8 kts 137°
2026-05-08 15:41 25.10466 102.93784 6894 ft 9 kts 214°
2026-05-08 15:41 25.10417 102.93741 6894 ft 9 kts 218°
2026-05-08 15:41 25.10363 102.93695 6894 ft 10 kts 218°
2026-05-08 15:42 25.10306 102.93645 6894 ft 11 kts 218°
2026-05-08 15:42 25.10246 102.93592 6895 ft 12 kts 219°
2026-05-08 15:42 25.10181 102.93536 6895 ft 12 kts 218°
2026-05-08 15:42 25.10111 102.93476 6895 ft 13 kts 217°
2026-05-08 15:43 25.10064 102.93427 6895 ft 9 kts 238°
2026-05-08 15:43 25.10066 102.93362 6896 ft 9 kts 284°
2026-05-08 15:43 25.10085 102.93310 6896 ft 6 kts 319°
2026-05-08 15:43 25.10128 102.93317 6896 ft 7 kts 18°
2026-05-08 15:44 25.10179 102.93330 6896 ft 8 kts 13°
2026-05-08 15:44 25.10213 102.93339 6896 ft 1 kts 13°
2026-05-08 15:44 25.10217 102.93340 6896 ft 0 kts 13°